User: anonymous   Login
Location: Unspecified
(0.0000°N, 0.0000°E)
Time: 07:55:51
(UTC+00:00)
Language:

MERIDIAN 7 - Orbit

View from above orbital plane
View from above orbital plane
View from above satellite
View from above satellite

Ground track
Ground track

The orbit data is extracted from the following two-line orbital elements,

1 40296U 14069A   17143.36455307 +.00000179 +00000-0 +00000-0 0  9997
2 40296 062.8030 246.8456 6969132 274.9993 037.7571 02.00594620018799
Epoch (UTC): 23 May 2017 08:44:57
Eccentricity: 0.6969132
inclination: 62.8030°
perigee height: 1671 km
apogee height: 38687 km
right ascension of ascending node: 246.8456°
argument of perigee: 274.9993°
revolutions per day: 2.00594620
mean anomaly at epoch: 37.7571°
orbit number at epoch: 1879

The dashed part of the orbit path shows where the satellite is in the earth's shadow,  

DLR